Content
SEND FEEDBACK

Daily
Averages
Monthly
Summary
Germany

WURZBURG, GERMANY


Home > Europe > Germany
Elevation: 850 feet     Latitude: 49 48N     Longitude: 009 54E

WEATHER
 
SELECT A DAY
Number of Records: 73,888;   Date Range: 2/20/97 - 9/15/14
 
SHARE

PRINT THIS DATA

[ ← Previous Day ]
WEATHER ALMANAC - JULY 11, 2013
[ Next Day → ]
[ °C ]   °F
Weather ElementAverageHighLow
Temperature63.7 °F69.8 °F (5:20 pm)57.2 °F (6:20 am)
Dewpoint47.6 °F51.8 °F (5:20 am)44.6 °F (2:20 pm)
Humidity53 %77 % (5:20 am)32 % (2:00 pm)
Barometer30.05 in30.06 in (9:20 am)30.01 in (5:20 am)
Wind Speed8.4 mph13.4 mph (2:00 pm)
Weather ElementAverage
Visibility12.1 mi
Wind DirectionENE (54 °)

Weather ElementTotal
Precipitation---
Heating Degree Days1.5 (Base 65)
Growing Degree Days13.5 (Base 50)
Averaged from 25 records on July 11, 2013
WEATHER CONDITIONS BREAKOUT
WIND DIRECTION BREAKOUT
WEATHER BY HOUR - JULY 11, 2013
[ °C ]   °F
Local TimeTemperatureDewpointHumidityBarometerVisibilityWind DirectionWind SpeedGust SpeedPrecipitationEventsConditions
5:00 AM58.0 °F50.0 °F68 %30.04 in16.0 miNorth (10°)6.7 mphScattered Clouds
5:20 AM59.0 °F51.8 °F77 %30.01 in6.2 miNNE (20°)4.6 mphScattered Clouds
6:00 AM58.0 °F51.0 °F69 %30.02 in16.0 miNorth (10°)6.7 mphPartly Cloudy
6:20 AM57.2 °F50.0 °F77 %30.04 in6.2 miNNE (20°)4.6 mphPartly Cloudy
7:00 AM58.0 °F50.0 °F68 %30.04 in16.0 miNorth (10°)6.7 mphScattered Clouds
7:20 AM57.2 °F50.0 °F77 %30.04 in6.2 miNorth (10°)5.8 mphPartly Cloudy
8:20 AM59.0 °F50.0 °F72 %30.04 in6.2 miNNE (30°)8.1 mphPartly Cloudy
9:00 AM60.0 °F50.0 °F60 %30.05 in16.0 miNNE (20°)8.9 mphScattered Clouds
9:20 AM60.8 °F50.0 °F68 %30.06 in6.2 miNorth (10°)11.5 mphPartly Cloudy
10:00 AM62.0 °F50.0 °F56 %30.05 in16.0 miNNW (340°)6.7 mphScattered Clouds
10:20 AM64.4 °F50.0 °F59 %30.06 in6.2 miNNE (20°)6.9 mphPartly Cloudy
11:00 AM65.0 °F46.0 °F39 %30.05 in19.0 miNorth8.9 mphPartly Cloudy
11:20 AM66.2 °F46.4 °F49 %30.06 in6.2 miNNE (20°)10.4 mphScattered Clouds
12:00 PM65.0 °F46.0 °F39 %30.05 in19.0 miNorth8.9 mphPartly Cloudy
12:20 PM66.2 °F46.4 °F49 %30.06 in6.2 miNNE (20°)9.2 mphScattered Clouds
1:00 PM67.0 °F46.0 °F35 %30.05 in22.0 miNorth8.9 mphPartly Cloudy
1:20 PM66.2 °F46.4 °F49 %30.06 in6.2 miNNE (30°)9.2 mphScattered Clouds
2:00 PM68.0 °F45.0 °F32 %30.04 in25.0 miNorth13.4 mphScattered Clouds
2:20 PM68.0 °F44.6 °F43 %30.06 in6.2 miNNE (20°)4.6 mphScattered Clouds
3:00 PM68.0 °F45.0 °F33 %30.04 in25.0 miNorth (350°)8.9 mphScattered Clouds
3:20 PM68.0 °F46.4 °F46 %30.06 in6.2 miNNE (20°)10.4 mphScattered Clouds
4:00 PM68.0 °F45.0 °F32 %30.04 in25.0 miNorth13.4 mphScattered Clouds
4:20 PM68.0 °F44.6 °F43 %30.06 in6.2 miNorth (360°)9.2 mphScattered Clouds
5:20 PM69.8 °F44.6 °F40 %30.06 in6.2 miNNE (20°)9.2 mphPartly Cloudy
6:20 PM66.2 °F44.6 °F46 %30.06 in6.2 miNorth (10°)9.2 mphPartly Cloudy
Hourly data recorded from ETSI, located miles away from Wurzburg, Germany







STORIES FROM OUR PARTNERS